[[{"header":{"parameterUnit":"m.s-1","parameterCategory":1,"la1":30.2991,"la2":30.254,"lo1":-89.0895,"lo2":-89.0444,"dy":0.0017,"dx":0.0017,"nx":28,"ny":28,"refTime":"2024-08-23T09:00:00:Z","depth":0,"parameterNumber":2,"parameterNumberName":"U-component_of_WINDS"},"data":[0,0,0,0,0,0,0,0,0,0,0,0,0,0,0,0,0,0,0,0,0,0,0,0,0,0,0,0,0,0,0,0,0,0,0,0,0,0,0,0,0,0,0,0,0,0,0,0,0,0,0,0,0,0,0,0,0,0,-7.0176,-7.0176,0,-7.0224,-7.0225,-7.0225,-7.0109,-7.0105,-7.0101,-7.0098,-7.0151,-7.0156,-7.0161,0,0,0,0,0,0,0,0,0,0,0,0,0,-6.9988,-6.9992,-7.0176,-7.0176,-7.0177,-7.0224,-7.0225,-7.0225,-7.0109,-7.0105,-7.01,-7.0096,-7.015,-7.0155,-7.0161,0,0,0,0,0,0,0,0,0,0,0,0,0,-7.0056,-6.9993,-7.0176,-7.0125,-7.012,-7.0224,-7.0225,-7.0226,-7.011,-7.0105,-7.0099,-7.0094,-7.0148,-7.0155,-7.0162,-7.0319,0,0,-7.0185,-7.0188,0,0,0,0,0,0,0,0,-7.0053,-7.0063,-7.0131,-7.0128,-7.0124,-7.0154,-7.0178,-7.0257,-7.0112,-7.0114,-7.0097,-7.0091,-7.0157,-7.0163,-7.0185,-7.0321,-7.0323,-7.0185,-7.019,-7.0193,-7.0195,0,0,0,0,0,0,0,-7.0048,-7.0061,-7.0195,-7.0133,-7.0128,-7.0101,-7.0104,-7.0192,-7.0166,-7.0113,-7.0105,-7.0112,-7.0154,-7.0178,-7.0185,-7.0324,-7.0185,-7.0191,-7.0196,-7.0199,-7.0593,-7.0598,0,0,0,0,0,0,-7.0049,-7.0057,-7.0193,-7.0196,-7.0074,-7.0109,-7.0113,-7.015,-7.0165,-7.0162,-7.0117,-7.0107,-7.0168,-7.0177,-7.0187,-7.037,-7.0193,-7.02,-7.0204,-7.0587,-7.0594,-7.0601,0,0,0,0,0,0,-7.0045,-7.0062,-7.0191,-7.0125,-7.0139,-7.0118,-7.0161,-7.0154,-7.0178,-7.0168,-7.0163,-7.0146,-7.0164,-7.0176,-7.0287,-7.037,-7.0203,-7.021,-7.058,-7.0589,-7.0597,-7.0739,0,0,0,0,0,0,-7.0041,-7.0062,-7.0119,-7.0127,-7.0143,-7.0289,-7.0166,-7.0159,-7.019,-7.0177,-7.0193,-7.0191,-7.0161,-7.0276,-7.0294,-7.0377,-7.0215,-7.0572,-7.0584,-7.0594,-7.0726,-7.0751,-7.0773,0,0,0,0,0,-7.0034,-7.0158,-7.0123,-7.014,-7.0215,-7.0294,-7.0304,-7.0265,-7.0198,-7.0256,-7.025,-7.019,-7.0359,-7.0289,-7.0307,-7.0394,-7.0566,-7.058,-7.0594,-7.0716,-7.0747,-7.0772,0,0,0,0,0,0,-7.0162,-7.0158,-7.0119,-7.0249,-7.0273,-7.0274,-7.0346,-7.0299,-7.0343,-7.0329,-7.0282,-7.0286,-7.0406,-7.0412,-7.0333,-7.0547,-7.0451,-7.047,-7.0538,-7.0567,-7.059,-7.0585,-7.0221,0,0,0,0,0,-7.0205,-7.0269,-7.0263,-7.0378,-7.0392,-7.0368,-7.0401,-7.037,-7.0393,-7.0403,-7.0404,-7.0431,-7.049,-7.0529,-7.0583,-7.0728,-7.073,-7.0798,-7.0821,-7.084,-7.0855,-7.0933,-7.0962,-7.0645,-7.0645,-7.0645,0,0,-7.0295,-7.0301,-7.0344,-7.0404,-7.0418,-7.0486,-7.0377,-7.0453,-7.0504,-7.0415,-7.0517,-7.0521,-7.0548,-7.0676,-7.0733,-7.0684,-7.0944,-7.0858,-7.0873,-7.0878,-7.095,-7.098,-7.1007,-7.0655,-7.0653,-7.0651,0,0,-7.0492,-7.0504,-7.06,-7.0618,-7.0641,-7.0625,-7.0649,-7.0659,-7.0657,-7.076,-7.0694,-7.0755,-7.0858,-7.0879,-7.0903,-7.1113,-7.106,-7.1133,-7.1253,-7.1329,-7.1354,-7.1376,-7.1449,-7.1476,-7.1149,-7.1149,-7.1149,0,-7.06,-7.0698,-7.0656,-7.0737,-7.0766,-7.0689,-7.0787,-7.0807,-7.0848,-7.087,-7.0816,-7.0943,-7.0956,-7.1088,-7.1139,-7.1162,-7.1188,-7.1128,-7.1353,-7.1375,-7.1395,-7.1464,-7.1492,-7.1157,-7.1156,-7.1156,-7.1155,0,-7.083,-7.09,-7.0976,-7.1016,-7.1054,-7.1143,-7.1116,-7.116,-7.1127,-7.1117,-7.1224,-7.1237,-7.1292,-7.1322,-7.1291,-7.1451,-7.142,-7.1361,-7.1263,-7.1434,-7.1498,-7.1525,-7.117,-7.1166,-7.1164,-7.1162,0,0,-7.1105,-7.1122,-7.1151,-7.1168,-7.119,-7.1244,-7.1332,-7.1384,-7.1423,-7.1456,-7.1527,-7.1618,-7.1563,-7.1591,-7.1563,-7.163,-7.1794,-7.1562,-7.1562,-7.1603,-7.197,-7.2012,-7.2043,-7.1761,-7.1765,-7.1769,-7.1967,0,-7.1298,-7.1445,-7.1411,-7.1558,-7.1622,-7.1552,-7.1628,-7.1651,-7.1646,-7.1701,-7.1696,-7.1759,-7.1684,-7.17,-7.1764,-7.176,-7.1866,-7.1746,-7.1827,-7.183,-7.1819,-7.2077,-7.2122,-7.2307,-7.1992,-7.1997,-7.2,0,-7.1542,-7.1582,-7.1735,-7.1747,-7.1773,-7.1842,-7.1888,-7.1942,-7.1968,-7.1959,-7.1992,-7.1951,-7.2039,-7.1944,-7.2066,-7.1985,-7.2017,-7.2021,-7.2027,-7.203,-7.1923,-7.2085,-7.2366,-7.2393,-7.2039,-7.2036,-7.2033,0,-7.1724,-7.1818,-7.192,-7.1938,-7.1956,-7.2006,-7.2016,-7.2037,-7.2071,-7.2113,-7.2135,-7.2188,-7.2216,-7.2259,-7.2234,-7.2167,-7.236,-7.2263,-7.2356,-7.2356,-7.2396,-7.2393,-7.2683,-7.2423,-7.2422,-7.2422,-7.2421,0,-7.1941,-7.2037,-7.2002,-7.2065,-7.2171,-7.2133,-7.2239,-7.2242,-7.2261,-7.2325,-7.227,-7.2331,-7.2296,-7.2355,-7.2337,-7.244,-7.2455,-7.2451,-7.2444,-7.2453,-7.2454,-7.2471,-7.2456,-7.2429,-7.2427,-7.2426,-7.2425,0,-7.2161,-7.2142,-7.2249,-7.2258,-7.2263,-7.234,-7.2348,-7.2408,-7.24,-7.2481,-7.2498,-7.2486,-7.2553,-7.2534,-7.2607,-7.2595,-7.2725,-7.2704,-7.2715,-7.2709,-7.2802,-7.2793,-7.311,-7.315,-7.2867,-7.287,-7.2872,0,-7.2299,-7.237,-7.2387,-7.2425,-7.2439,-7.2501,-7.2536,-7.2503,-7.2542,-7.2579,-7.2634,-7.2697,-7.2744,-7.2855,-7.2854,-7.291,-7.2888,-7.2996,-7.2896,-7.2904,-7.2887,-7.2882,-7.2888,-7.3014,-7.3018,-7.302,-7.3023,0,-7.2545,-7.2533,-7.2584,-7.2633,-7.2676,-7.2714,-7.2746,-7.2781,-7.2751,-7.2798,-7.2865,-7.2902,-7.2977,-7.304,-7.3092,-7.3104,-7.3059,-7.3055,-7.3079,-7.3087,-7.309,-7.3088,-7.2766,-7.3046,-7.3044,-7.3042,-7.3041,-7.304,-7.2726,-7.2786,-7.2808,-7.2867,-7.2889,-7.2921,-7.2977,-7.2977,-7.3031,-7.3088,-7.3067,-7.3145,-7.3171,-7.3236,-7.3256,-7.3317,-7.3276,-7.3312,-7.332,-7.3328,-7.3339,-7.3084,-7.3327,-7.3326,-7.3326,-7.3325,-7.3325,0,-7.2967,-7.2978,-7.3034,-7.308,-7.3128,-7.3082,-7.3116,-7.3159,-7.3228,-7.3256,-7.3304,-7.3382,-7.3444,-7.3449,-7.3507,-7.3555,-7.3536,-7.3571,-7.3565,-7.3569,-7.3373,-7.3345,-7.3586,-7.3586,-7.3586,-7.3585,-7.3585,-7.3585,-7.3098,-7.3197,-7.3188,-7.3298,-7.3309,-7.3383,-7.3406,-7.3437,-7.3459,-7.3548,-7.3598,-7.3601,-7.362,-7.368,-7.3735,-7.3735,-7.3758,-7.3801,-7.3793,-7.3609,-7.3583,-7.3558,-7.3531,-7.3807,-7.3807,-7.3983,-7.3985,-7.3986]},{"header":{"parameterUnit":"m.s-1","parameterCategory":1,"la1":30.2991,"la2":30.254,"lo1":-89.0895,"lo2":-89.0444,"dy":0.0017,"dx":0.0017,"nx":28,"ny":28,"refTime":"2024-08-23T09:00:00:Z","depth":0,"parameterNumber":3,"parameterNumberName":"V-component_of_WINDS"},"data":[0,0,0,0,0,0,0,0,0,0,0,0,0,0,0,0,0,0,0,0,0,0,0,0,0,0,0,0,0,0,0,0,0,0,0,0,0,0,0,0,0,0,0,0,0,0,0,0,0,0,0,0,0,0,0,0,0,0,1.9791,1.9791,0,1.9794,1.9794,1.9794,1.9852,1.9853,1.9855,1.9856,1.9855,1.9854,1.9852,0,0,0,0,0,0,0,0,0,0,0,0,0,1.9831,1.983,1.9791,1.9791,1.9791,1.9794,1.9794,1.9794,1.9852,1.9853,1.9855,1.9857,1.9855,1.9854,1.9852,0,0,0,0,0,0,0,0,0,0,0,0,0,1.9821,1.9829,1.9791,1.982,1.9823,1.9794,1.9794,1.9794,1.9851,1.9853,1.9856,1.9858,1.9856,1.9854,1.9852,1.9794,0,0,1.9845,1.9844,0,0,0,0,0,0,0,0,1.9822,1.982,1.9816,1.9818,1.9821,1.9825,1.9808,1.9794,1.9851,1.984,1.9856,1.9859,1.9843,1.9842,1.9838,1.9794,1.9794,1.9845,1.9844,1.9843,1.9842,0,0,0,0,0,0,0,1.9822,1.982,1.9792,1.9816,1.9819,1.9832,1.9833,1.9806,1.9829,1.9841,1.9846,1.9845,1.9845,1.984,1.9838,1.9794,1.9845,1.9843,1.9842,1.9841,1.9704,1.9702,0,0,0,0,0,0,1.982,1.982,1.9792,1.9792,1.9827,1.9829,1.9831,1.9821,1.9829,1.9833,1.9843,1.9848,1.9842,1.984,1.9838,1.9771,1.9843,1.9841,1.984,1.9706,1.9703,1.9701,0,0,0,0,0,0,1.982,1.9817,1.9792,1.9807,1.9805,1.9826,1.9815,1.982,1.9815,1.9831,1.9835,1.9834,1.9844,1.9841,1.9805,1.9772,1.984,1.9838,1.9709,1.9705,1.9702,1.9637,0,0,0,0,0,0,1.9821,1.9816,1.9796,1.9807,1.9804,1.976,1.9814,1.9819,1.9812,1.9818,1.9823,1.9826,1.9845,1.9808,1.9803,1.977,1.9837,1.9712,1.9707,1.9703,1.9642,1.9631,1.9622,0,0,0,0,0,1.9822,1.9776,1.9794,1.9791,1.9779,1.9758,1.9756,1.978,1.9809,1.9788,1.9798,1.9826,1.9777,1.9804,1.9799,1.9765,1.9714,1.9709,1.9704,1.9646,1.9633,1.9622,0,0,0,0,0,0,1.9759,1.9778,1.9798,1.9755,1.9754,1.9768,1.9741,1.9766,1.9756,1.9762,1.9791,1.9792,1.9751,1.9755,1.9784,1.971,1.975,1.9744,1.9709,1.9696,1.9687,1.9686,1.9835,0,0,0,0,0,1.974,1.9723,1.974,1.9699,1.9698,1.972,1.9711,1.973,1.973,1.973,1.9738,1.9736,1.972,1.9709,1.9695,1.9643,1.9645,1.9617,1.9608,1.9599,1.9593,1.9565,1.9553,1.9683,1.9683,1.9683,0,0,1.97,1.9709,1.9695,1.9687,1.9689,1.9669,1.9719,1.9696,1.9681,1.9726,1.9693,1.9698,1.9698,1.9654,1.9635,1.9656,1.9558,1.9593,1.9586,1.9584,1.9558,1.9546,1.9535,1.968,1.968,1.9681,0,0,1.9617,1.9622,1.9589,1.9591,1.9594,1.9609,1.9601,1.9611,1.9616,1.9584,1.9617,1.96,1.9572,1.957,1.9566,1.9483,1.9509,1.9478,1.9426,1.9399,1.9389,1.938,1.935,1.9338,1.9472,1.9472,1.9472,0,1.9567,1.954,1.9569,1.9544,1.9538,1.9581,1.9546,1.9546,1.9543,1.9538,1.9562,1.9529,1.9531,1.9487,1.9467,1.9463,1.9453,1.9477,1.9388,1.9379,1.9371,1.9343,1.9332,1.9468,1.9468,1.9469,1.9469,0,1.9477,1.9458,1.943,1.9429,1.9421,1.9391,1.9415,1.9403,1.9423,1.9434,1.94,1.9406,1.9393,1.9385,1.9403,1.9343,1.9356,1.9383,1.9425,1.9355,1.9328,1.9318,1.9462,1.9464,1.9465,1.9466,0,0,1.9353,1.9369,1.9358,1.9358,1.9365,1.935,1.9322,1.9312,1.9301,1.9298,1.9275,1.9251,1.9277,1.9272,1.929,1.9267,1.92,1.9297,1.9298,1.9278,1.9133,1.9112,1.9099,1.9218,1.9216,1.9214,1.9133,0,1.9272,1.9227,1.9253,1.9203,1.9185,1.9225,1.9201,1.9202,1.9212,1.9197,1.9209,1.9191,1.9227,1.9224,1.9203,1.9213,1.9171,1.9219,1.9195,1.9193,1.9192,1.9085,1.9062,1.8985,1.9123,1.9121,1.912,0,1.9172,1.9167,1.9116,1.9127,1.912,1.9098,1.909,1.9076,1.9078,1.9087,1.9082,1.9107,1.9079,1.9121,1.9083,1.9115,1.9107,1.911,1.9108,1.9105,1.9151,1.9078,1.8961,1.8949,1.9104,1.9106,1.9107,0,1.9085,1.9065,1.9032,1.9031,1.9043,1.9026,1.903,1.9035,1.9027,1.902,1.9016,1.9005,1.8999,1.899,1.9011,1.904,1.8969,1.9013,1.8975,1.8974,1.8957,1.8957,1.8835,1.8953,1.8954,1.8954,1.8954,0,1.8992,1.8959,1.8994,1.8973,1.8937,1.8967,1.893,1.8938,1.8941,1.8922,1.8956,1.8937,1.8966,1.895,1.8966,1.8931,1.8928,1.8934,1.8938,1.893,1.8929,1.8924,1.893,1.8951,1.8951,1.8952,1.8953,0,1.8888,1.8911,1.8877,1.8892,1.8895,1.8867,1.888,1.886,1.8874,1.8849,1.8845,1.8866,1.8848,1.8869,1.8852,1.8863,1.8816,1.8829,1.8815,1.8819,1.8779,1.8782,1.8648,1.8632,1.8761,1.876,1.8759,0,1.8827,1.8803,1.8815,1.8806,1.8808,1.8792,1.8785,1.8813,1.8804,1.8805,1.8785,1.8771,1.8761,1.8731,1.8744,1.8731,1.8744,1.8698,1.8742,1.8734,1.8742,1.8742,1.874,1.8688,1.8686,1.8685,1.8684,0,1.8715,1.8728,1.8717,1.871,1.8701,1.8696,1.8694,1.8684,1.8713,1.8701,1.8684,1.8677,1.8661,1.8646,1.8638,1.864,1.8666,1.867,1.8661,1.8651,1.8644,1.8647,1.879,1.8673,1.8674,1.8675,1.8675,1.8676,1.863,1.861,1.8617,1.8603,1.8605,1.8602,1.8585,1.8597,1.8585,1.8575,1.8592,1.8571,1.8573,1.8565,1.8565,1.8548,1.8567,1.8553,1.855,1.8545,1.8539,1.8648,1.8546,1.8547,1.8547,1.8547,1.8548,0,1.8519,1.8526,1.8513,1.851,1.8499,1.8527,1.8526,1.8515,1.8496,1.8497,1.8487,1.8468,1.8454,1.8466,1.8454,1.8438,1.8449,1.8433,1.8434,1.8434,1.8523,1.8532,1.8424,1.8424,1.8424,1.8424,1.8424,1.8424,1.846,1.8428,1.8442,1.841,1.8417,1.8397,1.8394,1.8392,1.8393,1.837,1.8359,1.8368,1.8373,1.8361,1.8349,1.8353,1.8347,1.8326,1.8334,1.8416,1.8428,1.844,1.8448,1.8325,1.8325,1.8247,1.8246,1.8246]}]]